Zurück zum Katalog

ATLAS 5 CENTAUR R/B

AktivHEO
NORAD 36098·ROCKET BODY·🇺🇸 United States

Gestartet Nov 23, 2009 von Cape Canaveral Space Force Station

Loading…

Nächste Überflüge (nächste 24 Stunden)

TLE

AktuellSource: Space-Track

Epoche: Sep 14, 2026, 00:26 UTC

1 36098U 09064B   26257.01828317 -.00000140  00000-0  00000-0 0  9993
2 36098  22.2407  61.9367 5620861 248.0078  43.7397  1.76308156108250

Verfolge ATLAS 5 CENTAUR R/B in Echtzeit mit AllMySat

Download on the App Store